User: anonymous   Login
Location: Unspecified
(0.0000°N, 0.0000°E)
Time: 10:49:08
(UTC+00:00)
Language:

FAISAT - Orbit

View from above orbital plane
View from above orbital plane
View from above satellite
View from above satellite

Ground track
Ground track

The orbit data is extracted from the following two-line orbital elements,

1 23465U 95002C   21016.79271013  .00000024  00000-0  10741-4 0  9999
2 23465  82.9258  43.6467 0036140 253.1916 281.1159 13.71898744300784
Epoch (UTC): 16 January 2021 19:01:30
Eccentricity: 0.0036140
inclination: 82.9258°
perigee height: 966 km
apogee height: 1019 km
right ascension of ascending node: 43.6467°
argument of perigee: 253.1916°
revolutions per day: 13.71898744
mean anomaly at epoch: 281.1159°
orbit number at epoch: 30078

The dashed part of the orbit path shows where the satellite is in the earth's shadow,  

DLR